FENGYUN 1C DEB, 31717

Orbit data source: Space-Track

FENGYUN 1C DEB, 31717 is space debris in SSO originally from a launch on Mon, 10 May 1999 UTC launched from the Taiyaun Space Center, China (TSC). Fengyun 1C debris stems from the Chinese weather satellite Fengyun-1C, which was intentionally destroyed by a Chinese anti-satellite missile in 2007. This event dramatically increased the amount of space debris, with thousands of trackable fragments posing hazards to satellites and human spaceflight. The Fengyun 1C debris cloud has become a focal point in discussions about space sustainability and the need for international regulations to prevent the creation of new debris.

Loading next visibility...
Identifier
31717, 1999-025CDQ
Orbit
SSO
Country
Flag of CNCN / PRC
Related business
Manufacturer
Unknown
Mission
Spacecraft
Bus & Motor
Unknown
Mass
Unknown
Launch date (UTC)
1999-05-10 (27 years ago)
Launch vehicle
Unknown
Launch site
Taiyaun Space Center, China (TSC)
Object type
Payload
Rocket body
Debris
Shape & HBR
Unknown shape, 0.1 m
Radar Cross Section
Small (<0.1 m²)

Expand to show TLE details & history
Last TLE update: 2 months ago

TLE from 2 months ago
0 FENGYUN 1C DEB
1 31717U 99025CDQ 26065.12347532  .00010047  00000-0  44517-2 0  9995
2 31717  96.9291 192.0170 0161219 128.6933 232.8793 14.16512038958309
Epoch: 2026-03-06T02:57Z
TLE epoch observation values (Epoch: 2026-03-06T02:57:48.267Z)
Latitude
0.00002°
Longitude
-16.29811°
Altitude
911.527 km
Speed
7.36 km/s
True Right ascension
12h 48m 04s
True Declination
0° 00' 00"
Sunlit
Object was in full shadow at epoch
Visualization orbit readout
Latitude
Unknown
Longitude
Unknown
Altitude
Unknown
Speed
Unknown
Apparent Right ascension
Unknown
Apparent Declination
Unknown
Sunlit
N/A
Visualization observer readout
Local Sidereal Time
06:46:31
Azimuth
Unknown
Elevation
Unknown
Doppler factor
Unknown
Orbital elements
Apogee altitude
950.536 km
Perigee altitude
717.981 km
Semi-major axis
7,212.395 km
Eccentricity
0.01612
Inclination
96.9291°
RAAN
192.017°
Arg. of periapsis
128.6933°
True anomaly
231.42408°
Mean anomaly
232.8793°
Eccentric anomaly
232.14992°
Mean motion
3.54343 °/min
Orbital period
101.6 mins
BSTAR
0.0044517
Loading maneuver chart data...
Computing Atmospheric mass density...

Documentation

Showing up to 5 results
|